Location: General Carneiro
(19.8333°S, 43.8333°W)
Time: 14:48:47
(UTC+00:00)

Daily predictions for brighter satellites

Satellite Brightness Start Highest point End
(mag) Time Altitude Azimuth Time Altitude Azimuth Time Altitude Azimuth
H-2A R/B 2.4 21:38:14 10° S 21:43:42 78° WSW 21:48:59 10° NNW
Okean 1 3.3 21:41:02 10° S 21:45:08 84° E 21:49:10 10° N
Cosmos 1980 Rocket 2.6 21:40:13 10° N 21:45:22 39° ENE 21:50:33 10° SE
COSMOS 2487 2.7 21:48:13 10° SSW 21:51:32 67° WNW 21:54:49 10° N
Cosmos 2369 3.7 21:47:01 10° N 21:52:38 66° ENE 21:58:16 10° SSE
Cosmos 1743 4.4 21:51:14 10° NE 21:53:35 16° E 21:55:56 10° SE
CZ-4C R/B 4.4 21:50:12 10° NE 21:55:25 17° ENE 22:00:28 10° ESE
Cosmos 1544 3.2 21:51:52 10° N 21:55:26 55° E 21:59:03 10° SSE
SJ-11-01 4.4 21:56:50 10° S 22:01:38 85° W 22:06:23 10° NNW
deb Chang Zheng 4 3.8 21:58:08 10° S 22:02:26 76° WSW 22:06:42 10° NNW
Cosmos 923 Rocket 4.4 21:57:36 10° S 22:02:37 46° ESE 22:07:35 10° NNE
Cosmos 1933 Rocket 3.6 22:00:40 10° N 22:04:55 57° E 22:09:15 10° SSE
CZ-4B R/B 3.6 22:00:37 10° S 22:06:16 73° WSW 22:11:45 10° NNW
OAO 1 Rocket 4.5 22:01:33 10° WNW 22:06:52 88° SSW 22:12:14 10° ESE
Cosmos 2266 Rocket 4.0 22:00:36 10° N 22:06:59 84° E 22:13:20 10° S
H-2A R/B 2.9 22:04:34 10° SSE 22:08:09 34° E 22:11:38 10° NNE
Cosmos 1470 Rocket 4.1 22:06:24 10° NNW 22:10:50 63° W 22:15:17 10° S
CZ-3B R/B 4.5 22:04:30 10° W 22:13:10 38° NNW 22:20:39 11° NE
Cosmos 2278 3.8 22:10:21 10° N 22:15:51 54° ENE 22:21:22 10° SSE
Delta 7925 Rocket 4.3 22:15:24 10° W 22:19:41 35° NNW 22:23:17 16° NE
Okean 1-7 4.4 22:16:35 10° SSE 22:19:49 20° E 22:21:09 18° ENE
Cosmos 1869 Rocket 4.3 22:16:20 11° NNE 22:19:59 32° E 22:23:55 10° SSE
GPS 2-14 Rocket1 4.4 22:18:23 10° NNW 22:20:37 15° NNE 22:20:51 15° NNE
GPS 2-17 Rocket1 3.0 22:16:05 10° W 22:20:47 88° S 22:24:34 15° E
Cosmos 2084 4.4 22:19:01 10° NW 22:23:38 57° WSW 22:28:18 10° SSE
CZ-4 R/B 1.4 22:20:18 10° SSE 22:24:33 77° E 22:28:44 10° N
Cosmos 1400 Rocket 4.3 22:25:35 19° E 22:25:40 19° E 22:28:30 10° SE
Cosmos 1125 Rocket 4.0 22:24:49 10° NNE 22:29:39 37° E 22:34:33 10° SE
Cosmos 2297 Rocket 2.2 22:24:46 10° S 22:30:24 65° ESE 22:34:32 18° NNE
Cosmos 2112 Rocket 4.2 22:25:33 10° S 22:30:44 55° ESE 22:34:14 20° NNE
CZ-4B R/B 4.0 22:30:30 10° NW 22:32:28 16° W 22:34:29 10° WSW
Mugunghwa Rocket 4.4 22:25:06 10° WNW 22:33:31 82° NNE 22:41:05 10° ESE
Cosmos 1536 2.9 22:30:14 10° N 22:34:12 77° W 22:38:13 10° S
OBJECT-B 2.2 22:34:26 10° SE 22:36:10 22° ESE 22:36:10 22° ESE
Skynet4D Del rocket 4.5 22:33:24 10° WNW 22:41:41 83° SSW 22:49:07 10° ESE
ATLAS 2A CENTAUR R/B 3.2 22:40:33 10° SW 22:41:56 16° S 22:43:01 12° SE
USA 229 DEB 4.5 22:34:34 10° NW 22:42:26 66° WSW 22:50:07 10° SSE
USA 229 4.4 22:34:39 10° NW 22:42:31 67° WSW 22:50:11 10° SSE
CSL-04 DEB 4.3 22:41:52 29° NNE 22:43:50 66° ESE 22:47:51 10° S
YAOGAN 1 3.3 22:39:46 10° S 22:44:02 55° WSW 22:48:15 10° NNW
Meteor 1-13 Rocket 4.4 22:38:52 10° S 22:44:38 58° E 22:48:08 24° NNE
Cosmos 1689 Rocket 1.8 22:50:18 74° S 22:50:18 74° S 22:52:47 10° S
SL-24 R/B - RUBIN 2 3.6 22:46:09 10° NNW 22:50:42 84° ENE 22:55:47 10° SSE
Lacrosse 4 Rocket 3.1 22:48:46 10° SSE 22:51:19 18° ESE 22:51:19 18° ESE
Yuri Rocket 3.9 22:49:10 10° WSW 22:54:44 87° NNW 22:58:21 32° ENE
Delta 2 Rocket 4.5 22:48:39 10° WNW 22:56:05 86° NNE 23:05:12 10° ESE
Delta 168 4.2 22:50:32 10° WSW 22:57:19 52° S 22:59:56 26° ESE
FALCON 9 R/B 3.6 22:21:24 10° WNW 22:58:27 81° SSW 23:03:34 15° ESE
Atlas Centaur 2 2.1 22:58:18 10° NW 23:00:49 35° NNW 23:00:49 35° NNW
Nadezhda 2 Rocket 4.5 22:59:38 10° N 23:05:55 86° W 23:12:10 10° S
Cosmos 2227 Rocket 2.2 23:00:35 10° SSW 23:06:17 83° WNW 23:08:44 36° N
Cosmos 724 4.3 23:04:07 10° SSW 23:10:19 75° ESE 23:12:16 45° NE
SL-08 R/B 4.4 23:08:34 33° NNE 23:11:28 69° E 23:17:41 10° S
Okean-O 3.2 23:09:05 10° S 23:13:28 57° WSW 23:16:44 17° NNW
CSL-04 Rocket 3.6 23:10:15 10° SSE 23:15:51 88° WSW 23:19:10 25° NNW
SAR-Lupe-4 4.0 23:17:03 58° SSW 23:17:03 58° SSW 23:20:00 10° SSW
Cosmos 1975 4.4 23:18:46 25° SSE 23:18:46 25° SSE 23:20:39 10° SSE
USA 215 3.9 23:13:31 27° N 23:16:53 48° NW 23:23:12 10° SW
Palapa 6 Rocket 3.9 23:13:05 10° W 23:20:18 84° S 23:22:33 42° ESE
Milstar 3 Cent rocket 3.1 23:18:29 10° W 23:23:48 62° SSW 23:33:34 10° ESE
SJ-6B 3.7 23:21:15 10° S 23:23:43 39° S 23:23:43 39° S
Cosmos 2322 Rocket 2.4 23:25:47 52° ESE 23:25:47 52° ESE 23:30:36 10° SSE
Cosmos 2242 Rocket 4.4 23:27:30 10° SSW 23:31:48 47° W 23:32:27 43° WNW
Cosmos 1745 Rocket 3.9 23:33:58 66° NE 23:34:37 72° E 23:40:53 10° S
Cosmos 1818 4.0 23:39:20 50° SE 23:39:20 50° SE 23:43:16 10° SSE
Cosmos 909 Rocket 4.3 23:32:13 10° S 23:38:17 52° ESE 23:38:23 52° ESE
Cosmos 2219 4.5 23:37:02 10° SW 23:42:08 34° WNW 23:43:59 28° NW
CZ-4C R/B 3.2 23:34:58 10° NNW 23:43:44 77° WSW 23:51:46 10° SSE
SL-16 R/B 2.5 23:41:36 32° NW 23:44:10 63° WSW 23:49:49 10° S
